Flag for U.S.A. Weather past 2 weeks in Bentonville, Arkansas, U.S.A.

Now
91 °F

Scattered clouds.


Feels Like: 99 °F
Forecast: 76 / 93 °F
Wind: 10 mph from Southwest

Location: Bentonville Weather Observing Station

Current Time: Jul 28, 2015 at 1:50:01 PM

Latest Report: Jul 28, 2015 at 1:35 PM


Visibility: 10 mi

Pressure: 30.03 "Hg

Humidity: 52%

Dew point: 72 °F

Location of BentonvilleLocation

Historic Weather in Bentonville — Graph

°F

Bentonville temperature yesterday

Maximum temperature yesterday: 93 °F (at 12:55 PM)
Minimum temperature yesterday: 77 °F (at 6:35 AM)
Average temperature yesterday: 85 °F

Past Weeks' High & Low Weather Summary

 TemperatureHumidityPressure
High93 °F (Jul 13, 2:55 PM)94% (Jul 22, 4:35 AM)30.07 "Hg (Jul 22, 4:35 AM)
Low72 °F (Jul 16, 5:55 AM)47% (Jul 25, 2:55 PM)29.83 "Hg (Jul 13, 7:15 PM)
Average82 °F69%29.96 "Hg
* Reported Jul 13 12:15 PM — Jul 28 12:35 PM, Bentonville, Weather by CustomWeather, © 2015

Note: Actual official high and low records may vary slightly from our data, if they occured in-between our weather recording intervals... More about our weather records

Advertising

Bentonville weather history for previous 24 hours

 ConditionsComfort  
Time TempWeatherWind HumidityBarometerVisibility
12:35 PM
Tue, Jul 28
90 °FSunny.8 mph52%30.04 "Hg10 mi
12:15 PM90 °FSunny.10 mph52%30.04 "Hg10 mi
11:55 AM90 °FSunny.8 mph52%30.04 "Hg10 mi
11:35 AM90 °FSunny.8 mph55%30.04 "Hg10 mi
11:15 AM88 °FSunny.8 mph59%30.04 "Hg10 mi
10:55 AM88 °FSunny.7 mph59%30.03 "Hg10 mi
10:35 AM88 °FSunny.8 mph59%30.03 "Hg10 mi
10:15 AM86 °FSunny.5 mph62%30.03 "Hg10 mi
9:55 AM86 °FSunny.7 mph62%30.03 "Hg10 mi
9:35 AM84 °FSunny.8 mph66%30.02 "Hg10 mi
9:15 AM84 °FSunny.8 mph62%30.02 "Hg10 mi
8:55 AM82 °FSunny.8 mph66%30.02 "Hg10 mi
8:35 AM82 °FSunny.8 mph66%30.01 "Hg10 mi
8:15 AM81 °FSunny.7 mph70%30.01 "Hg10 mi
7:55 AM81 °FSunny.5 mph70%30.00 "Hg10 mi
7:35 AM79 °FSunny.3 mph74%30.00 "Hg10 mi
7:15 AM75 °FClear.5 mph83%29.99 "Hg10 mi
6:55 AM75 °FClear.3 mph78%29.99 "Hg10 mi
6:35 AM75 °FClear.3 mph78%29.98 "Hg10 mi
6:15 AM75 °FClear.3 mph78%29.97 "Hg10 mi
5:55 AM75 °FClear.5 mph78%29.97 "Hg10 mi
5:35 AM75 °FClear.3 mph78%29.97 "Hg10 mi
5:15 AM77 °FClear.3 mph74%29.96 "Hg10 mi
4:35 AM75 °FClear.3 mph83%29.96 "Hg10 mi
4:15 AM77 °FClear.No wind79%29.96 "Hg10 mi
3:55 AM79 °FClear.3 mph74%29.96 "Hg10 mi
3:35 AM79 °FClear.3 mph74%29.96 "Hg8 mi
3:15 AM79 °FClear.3 mph74%29.96 "Hg10 mi
2:55 AM79 °FClear.5 mph74%29.96 "Hg10 mi
2:35 AM79 °FClear.5 mph74%29.97 "Hg10 mi
2:15 AM81 °FClear.5 mph70%29.97 "Hg10 mi
1:55 AM81 °FClear.5 mph70%29.98 "Hg10 mi
1:35 AM81 °FClear.6 mph70%29.98 "Hg10 mi
1:15 AM81 °FClear.6 mph70%29.99 "Hg10 mi
12:55 AM81 °FClear.7 mph70%29.98 "Hg10 mi
12:35 AM82 °FClear.8 mph66%29.97 "Hg10 mi
12:15 AM82 °FClear.8 mph70%29.97 "Hg10 mi
11:55 PM
Mon, Jul 27
81 °FClear.7 mph74%29.98 "Hg10 mi
11:35 PM82 °FClear.6 mph70%29.98 "Hg10 mi
11:15 PM82 °FClear.6 mph70%29.98 "Hg10 mi
10:55 PM82 °FClear.6 mph70%29.98 "Hg10 mi
10:35 PM82 °FClear.6 mph70%29.98 "Hg10 mi
10:15 PM82 °FClear.6 mph70%29.98 "Hg10 mi
9:55 PM84 °FPassing clouds.6 mph66%29.98 "Hg10 mi
9:35 PM84 °FClear.3 mph66%29.97 "Hg10 mi
9:15 PM84 °FSunny.No wind66%29.96 "Hg10 mi
8:55 PM86 °FSunny.No wind62%29.96 "Hg10 mi
8:35 PM88 °FSunny.3 mph59%29.95 "Hg10 mi
8:15 PM88 °FSunny.No wind59%29.95 "Hg10 mi
7:55 PM90 °FSunny.3 mph55%29.95 "Hg10 mi
7:35 PM90 °FSunny.No wind55%29.94 "Hg10 mi
7:15 PM91 °FSunny.6 mph52%29.94 "Hg10 mi
6:55 PM91 °FSunny.8 mph52%29.94 "Hg10 mi
6:35 PM91 °FSunny.7 mph52%29.94 "Hg10 mi
6:15 PM93 °FSunny.8 mph49%29.95 "Hg10 mi
5:55 PM93 °FSunny.7 mph49%29.95 "Hg10 mi
5:15 PM93 °FPassing clouds.8 mph49%29.96 "Hg10 mi
4:35 PM93 °FSunny.10 mph53%29.97 "Hg10 mi
4:15 PM93 °FSunny.10 mph49%29.96 "Hg10 mi
3:55 PM93 °FSunny.8 mph49%29.97 "Hg10 mi
3:35 PM93 °FSunny.6 mph49%29.98 "Hg10 mi
3:15 PM93 °FSunny.7 mph49%29.98 "Hg10 mi
2:55 PM93 °FSunny.6 mph49%29.98 "Hg10 mi
2:35 PM93 °FPassing clouds.8 mph49%29.98 "Hg10 mi
2:15 PM93 °FScattered clouds.5 mph49%29.98 "Hg10 mi
1:55 PM91 °FPassing clouds.5 mph56%29.98 "Hg10 mi
1:35 PM93 °FPassing clouds.6 mph49%29.99 "Hg10 mi
1:15 PM91 °FScattered clouds.6 mph56%30.00 "Hg10 mi
Weather by CustomWeather, © 2015

See weather overviewHow to use our weather pages